This is the latest recevied weather packets stored in our database for station/object EB2EMZ-15. If no packets are shown the sender has not sent any weather packets the latest 10 day(s).
| Time | Temp. | Humidity | Pressure | Rain* | Wind** | Luminosity | Snow |
|---|---|---|---|---|---|---|---|
| 1777721721 | 20° C | 77% | 994.7 hPa | 0 mm | - | - | - |
| 1777721423 | 19.44° C | 78% | 994.7 hPa | 0 mm | - | - | - |
| 1777721120 | 19.44° C | 78% | 994.7 hPa | 0 mm | - | - | - |
| 1777720823 | 18.89° C | 78% | 994.8 hPa | 0 mm | - | - | - |
| 1777720520 | 18.33° C | 78% | 995.1 hPa | 0 mm | - | - | - |
| 1777720223 | 18.33° C | 78% | 995.4 hPa | 0 mm | - | - | - |
| 1777719920 | 18.33° C | 77% | 995.5 hPa | 0 mm | - | - | - |
| 1777719621 | 18.33° C | 76% | 995.5 hPa | 0 mm | - | - | - |
| 1777719321 | 18.33° C | 75% | 995.5 hPa | 0 mm | - | - | - |
| 1777719023 | 18.33° C | 74% | 995.6 hPa | 0 mm | - | - | - |
| 1777718720 | 18.89° C | 73% | 995.9 hPa | 0 mm | - | - | - |
| 1777718423 | 19.44° C | 70% | 996.2 hPa | 0 mm | - | - | - |
| 1777718121 | 20° C | 67% | 996 hPa | 0 mm | - | - | - |
| 1777717823 | 20.56° C | 65% | 995.9 hPa | 0 mm | - | - | - |
| 1777717521 | 21.11° C | 63% | 995.6 hPa | 0 mm | - | - | - |
| 1777717223 | 21.11° C | 62% | 995.5 hPa | 0 mm | - | - | - |
| 1777716921 | 21.67° C | 61% | 995.6 hPa | 0 mm | - | - | - |
| 1777716624 | 22.22° C | 59% | 995.7 hPa | 0 mm | - | - | - |
| 1777716320 | 23.33° C | 57% | 995.7 hPa | 0 mm | - | - | - |
| 1777716020 | 23.89° C | 55% | 995.7 hPa | 0 mm | - | - | - |
| 1777715720 | 25° C | 54% | 995.6 hPa | 0 mm | - | - | - |
| 1777715423 | 25.56° C | 52% | 995.4 hPa | 0 mm | - | - | - |
| 1777715120 | 26.11° C | 52% | 995.3 hPa | 0 mm | - | - | - |
| 1777714823 | 26.67° C | 52% | 995.2 hPa | 0 mm | - | - | - |
| 1777714521 | 26.67° C | 52% | 995.3 hPa | 0 mm | - | - | - |
* Rain latest hour (hover to see other rain measurements)
** Current wind speed in m/s (hover to see current wind gust speed)